{"data":{"norad_id":63370,"epoch":"2026-05-25T04:00:03.998880Z","epoch_age_seconds":60310,"freshness":"FRESH","line1":"1 63370U 25063H   26145.16671295  .00057214  00000+0  16938-2 0  9997","line2":"2 63370  53.1592  54.9775 0001429  25.6596 212.7312 15.34359274  5828","mean_motion":15.34359274,"eccentricity":0.0001429,"inclination_deg":53.1592,"raan_deg":54.9775,"arg_perigee_deg":25.6596,"mean_anomaly_deg":212.7312,"bstar":0.0016938,"rev_number":582,"period_min":93.850249051905,"perigee_km":461.84671577091,"apogee_km":463.80186250734,"semimajor_km":6840.9612891391,"source":"CELESTRAK","updated_at":"2026-05-25T13:38:19.962858Z"}}